Honolulu, HI

4:03 AM HST on April 21, 2018 (GMT -1000)
Honolulu International

Weather History for PHNL - October, 2013

Change the Weather History Date:

Wednesday, October 9, 2013

  Actual Average Record
Temperature  
Mean Temperature 81 °F 81 °F  
Max Temperature 86 °F 87 °F 92 °F (2015)
Min Temperature 75 °F 74 °F 68 °F (1992)
Degree Days  
Heating Degree Days 0 0  
Month to date heating degree days 0 0  
Since 1 July heating degree days 0 0  
Cooling Degree Days 16 16  
Month to date cooling degree days 136 144  
Year to date cooling degree days 3473 3623  
Growing Degree Days 30 (Base 50)    
Moisture  
Dew Point 65 °F    
Average Humidity 63    
Maximum Humidity 74    
Minimum Humidity 51    
Precipitation  
Precipitation 0.00 in 0.05 in 0.91 in (1989)
Month to date precipitation 0.04 0.41  
Year to date precipitation 10.45 10.01  
Snow  
Snow 0.00 in - - ()
Month to date snowfall 0.0  
Since 1 July snowfall 0.0  
Since 1 September snowfall 0.0  
Snow Depth 0.00 in    
Sea Level Pressure  
Sea Level Pressure 30.01 in    
Wind  
Wind Speed 13 mph (ENE)    
Max Wind Speed 24 mph    
Max Gust Speed 32 mph    
Visibility 10 miles    
Events      
T = Trace of Precipitation, MM = Missing Value Source: NWS Daily Summary

Daily Weather History Graph

Daily Weather History Graph

Search for Another Location

Airport or City:

Astronomy

Oct. 09, 2013 Rise Set
Actual Time 6:25 AM HST 6:11 PM HST
Civil Twilight 6:03 AM HST 6:34 PM HST
Nautical Twilight 5:37 AM HST 6:59 PM HST
Astronomical Twilight 5:11 AM HST 7:25 PM HST
Moon 11:03 AM HST (10/9) 10:25 PM HST (10/9)
Length of Visible Light 12h 30m
Length of Day
11h 46m
Waxing Crescent, 27% of the Moon is Illuminated
Oct 9
Waxing Crescent
Oct 11
First Quarter
Oct 18
Full
Oct 26
Last Quarter
Nov 3
New

Hourly Weather History & Observations

Time (HST) Temp. Heat Index Dew Point Humidity Pressure Visibility Wind Dir Wind Speed Gust Speed Precip Events Conditions
12:53 AM 75.9 °F - 66.9 °F 74% 30.03 in 10.0 mi East 5.8 mph - N/A   Scattered Clouds
1:53 AM 75.9 °F - 66.0 °F 71% 30.03 in 10.0 mi ENE 6.9 mph - N/A   Scattered Clouds
2:53 AM 75.0 °F - 64.9 °F 71% 30.01 in 10.0 mi ENE 15.0 mph - N/A   Partly Cloudy
3:53 AM 75.9 °F - 64.9 °F 69% 29.99 in 10.0 mi NE 12.7 mph - N/A   Partly Cloudy
4:53 AM 75.9 °F - 66.9 °F 74% 30.01 in 10.0 mi ENE 11.5 mph - N/A   Scattered Clouds
5:53 AM 75.9 °F - 66.0 °F 71% 30.01 in 10.0 mi ENE 10.4 mph - N/A   Scattered Clouds
6:53 AM 75.9 °F - 66.0 °F 71% 30.02 in 10.0 mi ENE 11.5 mph - N/A   Scattered Clouds
7:53 AM 78.1 °F - 64.9 °F 64% 30.04 in 10.0 mi ENE 11.5 mph - N/A   Scattered Clouds
8:53 AM 80.1 °F 82.1 °F 66.0 °F 62% 30.05 in 10.0 mi ENE 10.4 mph 18.4 mph N/A   Mostly Cloudy
9:53 AM 82.9 °F 84.4 °F 64.0 °F 53% 30.04 in 10.0 mi ENE 16.1 mph 25.3 mph N/A   Mostly Cloudy
10:53 AM 84.0 °F 85.8 °F 64.9 °F 53% 30.03 in 10.0 mi ENE 21.9 mph 26.5 mph N/A   Mostly Cloudy
11:53 AM 84.0 °F 85.8 °F 64.9 °F 53% 30.02 in 10.0 mi ENE 19.6 mph 26.5 mph N/A   Mostly Cloudy
12:53 PM 84.0 °F 85.4 °F 64.0 °F 51% 29.99 in 10.0 mi NE 16.1 mph - N/A   Mostly Cloudy
1:53 PM 84.9 °F 86.1 °F 64.0 °F 49% 29.97 in 10.0 mi ENE 17.3 mph 25.3 mph N/A   Mostly Cloudy
2:53 PM 84.0 °F 85.8 °F 64.9 °F 53% 29.96 in 10.0 mi ENE 16.1 mph 21.9 mph N/A   Mostly Cloudy
3:53 PM 82.9 °F 84.0 °F 63.0 °F 51% 29.96 in 10.0 mi ENE 19.6 mph 25.3 mph N/A   Mostly Cloudy
4:53 PM 81.0 °F 82.7 °F 64.9 °F 58% 29.96 in 10.0 mi NE 17.3 mph 24.2 mph N/A   Mostly Cloudy
5:53 PM 79.0 °F - 64.9 °F 62% 29.98 in 10.0 mi ENE 19.6 mph 24.2 mph N/A   Mostly Cloudy
6:53 PM 78.1 °F - 64.9 °F 64% 29.99 in 10.0 mi NE 12.7 mph - N/A   Scattered Clouds
7:53 PM 77.0 °F - 66.0 °F 69% 30.00 in 10.0 mi East 10.4 mph - N/A   Scattered Clouds
8:53 PM 77.0 °F - 66.0 °F 69% 30.01 in 10.0 mi ENE 10.4 mph - N/A   Scattered Clouds
9:53 PM 75.9 °F - 66.9 °F 74% 30.01 in 10.0 mi ENE 11.5 mph - N/A   Scattered Clouds
10:53 PM 75.9 °F - 66.9 °F 74% 30.01 in 10.0 mi ENE 8.1 mph - N/A   Scattered Clouds
11:53 PM 75.0 °F - 66.0 °F 73% 30.00 in 10.0 mi NE 5.8 mph - N/A   Scattered Clouds